Wetterdaten: Woche 24.11.25 - 30.11.25 (KW48)
Datum Zeit Temp. I. Temp. A. Feuchte I. Feuchte A. Luftdruck Regen Wind Richtung Sonnenschein Solar Taupunkt Windchill Windböen
24.11.2025 00:00 22,3 °C -1,4 °C 50 % 88 % 1002,0 hPa 0,0 l/m² 6,2 km/h (2 Bft) SO 0,00 h 0 W/m² -3,1 °C -2,6 °C 10,8 km/h (2 Bft)
24.11.2025 01:00 22,2 °C -1,5 °C 50 % 88 % 1001,2 hPa 0,0 l/m² 4,5 km/h (1 Bft) SO 0,00 h 0 W/m² -3,2 °C -2,0 °C 7,3 km/h (2 Bft)
24.11.2025 02:00 22,2 °C -1,8 °C 50 % 89 % 1000,5 hPa 0,0 l/m² 3,8 km/h (1 Bft) O 0,00 h 0 W/m² -3,4 °C -2,7 °C 6,1 km/h (2 Bft)
24.11.2025 03:00 22,2 °C -1,9 °C 50 % 89 % 1000,2 hPa 0,0 l/m² 0,0 km/h (0 Bft) O-SO 0,00 h 0 W/m² -3,5 °C -1,9 °C 0,1 km/h (0 Bft)
24.11.2025 04:00 22,1 °C -2,4 °C 50 % 89 % 1000,0 hPa 0,0 l/m² 0,1 km/h (0 Bft) S-SO 0,00 h 0 W/m² -4,0 °C -2,4 °C 0,2 km/h (0 Bft)
24.11.2025 05:00 22,2 °C -2,0 °C 50 % 89 % 999,7 hPa 0,0 l/m² 0,6 km/h (0 Bft) S 0,00 h 0 W/m² -3,5 °C -2,0 °C 1,0 km/h (0 Bft)
24.11.2025 06:00 22,1 °C -2,7 °C 50 % 89 % 999,5 hPa 0,0 l/m² 0,2 km/h (0 Bft) O-NO 0,00 h 0 W/m² -4,3 °C -2,7 °C 0,4 km/h (0 Bft)
24.11.2025 07:00 22,1 °C -2,6 °C 50 % 90 % 999,4 hPa 0,0 l/m² 0,2 km/h (0 Bft) O 0,00 h 6 W/m² -4,0 °C -2,6 °C 0,7 km/h (0 Bft)
24.11.2025 08:00 22,2 °C -2,8 °C 50 % 90 % 999,5 hPa 0,0 l/m² 0,0 km/h (0 Bft) O-SO 0,20 h 35 W/m² -4,2 °C -2,8 °C 0,0 km/h (0 Bft)
24.11.2025 09:00 22,3 °C -1,9 °C 50 % 91 % 999,3 hPa 0,0 l/m² 0,0 km/h (0 Bft) O 1,00 h 105 W/m² -3,2 °C -1,9 °C 0,0 km/h (0 Bft)
24.11.2025 10:00 22,3 °C 0,5 °C 48 % 92 % 999,3 hPa 0,0 l/m² 0,9 km/h (0 Bft) S 1,00 h 142 W/m² -0,7 °C 0,5 °C 2,3 km/h (1 Bft)
24.11.2025 11:00 22,1 °C 2,5 °C 45 % 90 % 998,9 hPa 0,4 l/m² 0,2 km/h (0 Bft) SO 1,00 h 124 W/m² 1,1 °C 2,5 °C 0,7 km/h (0 Bft)
24.11.2025 12:00 22,0 °C 3,2 °C 47 % 87 % 998,4 hPa 0,0 l/m² 3,2 km/h (1 Bft) S 1,00 h 138 W/m² 1,3 °C 2,9 °C 4,9 km/h (1 Bft)
24.11.2025 13:00 22,1 °C 3,4 °C 48 % 85 % 998,1 hPa 0,0 l/m² 2,4 km/h (1 Bft) SO 0,65 h 80 W/m² 1,2 °C 3,4 °C 4,5 km/h (1 Bft)
24.11.2025 14:00 22,0 °C 4,0 °C 48 % 84 % 998,0 hPa 0,0 l/m² 3,9 km/h (1 Bft) SO 0,75 h 115 W/m² 1,6 °C 4,0 °C 6,8 km/h (2 Bft)
24.11.2025 15:00 21,8 °C 3,8 °C 47 % 83 % 997,9 hPa 0,0 l/m² 4,1 km/h (1 Bft) O-SO 0,00 h 16 W/m² 1,2 °C 3,7 °C 7,1 km/h (2 Bft)
24.11.2025 16:00 21,9 °C 3,2 °C 47 % 85 % 998,2 hPa 0,0 l/m² 1,8 km/h (1 Bft) S 0,00 h 5 W/m² 0,9 °C 3,1 °C 2,9 km/h (1 Bft)
24.11.2025 17:00 21,8 °C 2,6 °C 47 % 86 % 998,4 hPa 0,0 l/m² 0,0 km/h (0 Bft) S 0,00 h 0 W/m² 0,5 °C 2,6 °C 0,0 km/h (0 Bft)
24.11.2025 18:00 21,8 °C 1,5 °C 49 % 87 % 998,6 hPa 0,0 l/m² 0,0 km/h (0 Bft) S 0,00 h 0 W/m² -0,4 °C 1,5 °C 0,0 km/h (0 Bft)
24.11.2025 19:00 21,9 °C 1,2 °C 52 % 89 % 998,7 hPa 0,0 l/m² 0,0 km/h (0 Bft) S-SO 0,00 h 0 W/m² -0,4 °C 1,2 °C 0,0 km/h (0 Bft)
24.11.2025 20:00 22,1 °C 1,2 °C 54 % 90 % 998,9 hPa 0,0 l/m² 0,0 km/h (0 Bft) O-NO 0,00 h 0 W/m² -0,3 °C 1,2 °C 0,1 km/h (0 Bft)
24.11.2025 21:00 22,2 °C 1,2 °C 53 % 91 % 999,0 hPa 0,0 l/m² 0,0 km/h (0 Bft) O 0,00 h 0 W/m² -0,1 °C 1,2 °C 0,0 km/h (0 Bft)
24.11.2025 22:00 22,0 °C 1,5 °C 51 % 92 % 998,9 hPa 0,0 l/m² 0,1 km/h (0 Bft) O 0,00 h 0 W/m² 0,3 °C 1,5 °C 0,5 km/h (0 Bft)
24.11.2025 23:00 21,8 °C 1,3 °C 52 % 92 % 999,2 hPa 0,2 l/m² 0,0 km/h (0 Bft) S-SW 0,00 h 0 W/m² 0,2 °C 1,3 °C 0,0 km/h (0 Bft)
25.11.2025 00:00 21,7 °C 0,4 °C 51 % 91 % 999,6 hPa 0,0 l/m² 0,0 km/h (0 Bft) SO 0,00 h 0 W/m² -0,9 °C 0,4 °C 0,3 km/h (0 Bft)
25.11.2025 01:00 21,7 °C 0,5 °C 51 % 92 % 999,7 hPa 0,0 l/m² 0,0 km/h (0 Bft) S-SO 0,00 h 0 W/m² -0,6 °C 0,5 °C 0,1 km/h (0 Bft)
25.11.2025 02:00 21,8 °C 0,4 °C 51 % 92 % 1000,0 hPa 0,0 l/m² 0,1 km/h (0 Bft) O-NO 0,00 h 0 W/m² -0,8 °C 0,4 °C 0,5 km/h (0 Bft)
25.11.2025 03:00 21,8 °C 0,2 °C 51 % 92 % 1000,4 hPa 0,0 l/m² 0,0 km/h (0 Bft) O-NO 0,00 h 0 W/m² -0,9 °C 0,2 °C 0,0 km/h (0 Bft)
25.11.2025 04:00 21,8 °C 0,2 °C 51 % 93 % 1000,6 hPa 0,0 l/m² 0,0 km/h (0 Bft) O-NO 0,00 h 0 W/m² -0,9 °C 0,2 °C 0,0 km/h (0 Bft)
25.11.2025 05:00 21,9 °C 0,4 °C 51 % 93 % 1000,9 hPa 0,0 l/m² 0,0 km/h (0 Bft) O-NO 0,00 h 0 W/m² -0,6 °C 0,4 °C 0,0 km/h (0 Bft)
25.11.2025 06:00 21,9 °C 0,6 °C 51 % 93 % 1001,4 hPa 0,0 l/m² 0,1 km/h (0 Bft) O 0,00 h 0 W/m² -0,4 °C 0,6 °C 0,3 km/h (0 Bft)
25.11.2025 07:00 21,8 °C 0,5 °C 50 % 93 % 1002,0 hPa 0,0 l/m² 0,0 km/h (0 Bft) O 0,00 h 5 W/m² -0,5 °C 0,5 °C 0,0 km/h (0 Bft)
25.11.2025 08:00 21,7 °C 0,6 °C 51 % 93 % 1002,5 hPa 0,0 l/m² 0,0 km/h (0 Bft) O 0,20 h 34 W/m² -0,4 °C 0,6 °C 0,0 km/h (0 Bft)
25.11.2025 09:00 21,7 °C 1,3 °C 51 % 94 % 1002,9 hPa 0,0 l/m² 0,0 km/h (0 Bft) O 0,95 h 84 W/m² 0,4 °C 1,3 °C 0,0 km/h (0 Bft)
25.11.2025 10:00 21,7 °C 1,8 °C 50 % 94 % 1003,7 hPa 0,0 l/m² 0,0 km/h (0 Bft) SW 1,00 h 111 W/m² 0,9 °C 1,8 °C 0,0 km/h (0 Bft)
25.11.2025 11:00 21,7 °C 2,9 °C 49 % 94 % 1003,9 hPa 0,0 l/m² 0,0 km/h (0 Bft) SW 1,00 h 140 W/m² 2,1 °C 2,9 °C 0,0 km/h (0 Bft)
25.11.2025 12:00 21,6 °C 3,9 °C 49 % 94 % 1004,0 hPa 0,0 l/m² 0,0 km/h (0 Bft) SW 0,98 h 139 W/m² 3,0 °C 3,9 °C 0,0 km/h (0 Bft)
25.11.2025 13:00 21,6 °C 4,4 °C 50 % 94 % 1004,5 hPa 0,0 l/m² 0,0 km/h (0 Bft) SW 0,88 h 112 W/m² 3,5 °C 4,4 °C 0,0 km/h (0 Bft)
25.11.2025 14:00 21,6 °C 4,6 °C 50 % 93 % 1005,0 hPa 0,0 l/m² 0,5 km/h (0 Bft) SW 0,62 h 59 W/m² 3,6 °C 4,6 °C 1,7 km/h (1 Bft)
25.11.2025 15:00 21,6 °C 4,3 °C 50 % 91 % 1005,7 hPa 0,0 l/m² 1,0 km/h (0 Bft) N 0,00 h 23 W/m² 3,1 °C 4,3 °C 3,2 km/h (1 Bft)
25.11.2025 16:00 21,6 °C 3,5 °C 50 % 90 % 1006,3 hPa 0,0 l/m² 2,2 km/h (1 Bft) N-NW 0,00 h 5 W/m² 2,1 °C 3,5 °C 4,8 km/h (1 Bft)
25.11.2025 17:00 21,6 °C 2,9 °C 50 % 90 % 1007,0 hPa 0,0 l/m² 0,1 km/h (0 Bft) W-SW 0,00 h 0 W/m² 1,4 °C 2,9 °C 0,4 km/h (0 Bft)
25.11.2025 18:00 21,6 °C 2,6 °C 50 % 90 % 1008,0 hPa 0,0 l/m² 0,2 km/h (0 Bft) W 0,00 h 0 W/m² 1,2 °C 2,6 °C 0,8 km/h (0 Bft)
25.11.2025 19:00 21,5 °C 2,6 °C 50 % 91 % 1009,1 hPa 0,0 l/m² 0,0 km/h (0 Bft) W-NW 0,00 h 0 W/m² 1,3 °C 2,6 °C 0,1 km/h (0 Bft)
25.11.2025 20:00 21,5 °C 2,5 °C 50 % 91 % 1009,5 hPa 0,0 l/m² 1,6 km/h (1 Bft) NW 0,00 h 0 W/m² 1,2 °C 2,5 °C 3,9 km/h (1 Bft)
25.11.2025 21:00 21,6 °C 2,2 °C 50 % 92 % 1009,9 hPa 0,0 l/m² 2,6 km/h (1 Bft) NW 0,00 h 0 W/m² 1,0 °C 2,2 °C 5,0 km/h (1 Bft)
25.11.2025 22:00 21,5 °C 2,1 °C 50 % 92 % 1010,3 hPa 0,0 l/m² 4,0 km/h (1 Bft) NW 0,00 h 0 W/m² 0,9 °C 2,0 °C 7,7 km/h (2 Bft)
25.11.2025 23:00 21,4 °C 2,1 °C 50 % 92 % 1010,9 hPa 0,0 l/m² 2,0 km/h (1 Bft) NW 0,00 h 0 W/m² 1,0 °C 2,1 °C 4,4 km/h (1 Bft)
26.11.2025 00:00 21,4 °C 2,1 °C 50 % 93 % 1011,4 hPa 0,0 l/m² 1,5 km/h (1 Bft) NW 0,00 h 0 W/m² 1,1 °C 2,1 °C 5,0 km/h (1 Bft)
26.11.2025 01:00 21,4 °C 2,1 °C 50 % 93 % 1011,7 hPa 0,0 l/m² 7,3 km/h (2 Bft) NW 0,00 h 0 W/m² 1,1 °C 0,6 °C 13,8 km/h (3 Bft)
26.11.2025 02:00 21,3 °C 2,1 °C 50 % 93 % 1012,1 hPa 0,0 l/m² 4,2 km/h (1 Bft) NW 0,00 h 0 W/m² 1,1 °C 1,9 °C 9,5 km/h (2 Bft)
26.11.2025 03:00 21,3 °C 2,0 °C 50 % 93 % 1012,3 hPa 0,0 l/m² 5,0 km/h (1 Bft) N-NW 0,00 h 0 W/m² 1,0 °C 1,7 °C 9,3 km/h (2 Bft)
26.11.2025 04:00 21,3 °C 1,8 °C 50 % 93 % 1012,8 hPa 0,0 l/m² 8,8 km/h (2 Bft) N-NW 0,00 h 0 W/m² 0,8 °C -0,6 °C 14,8 km/h (3 Bft)
26.11.2025 05:00 21,4 °C 1,3 °C 50 % 92 % 1013,6 hPa 0,0 l/m² 8,0 km/h (2 Bft) N-NW 0,00 h 0 W/m² 0,1 °C -0,7 °C 13,9 km/h (3 Bft)
26.11.2025 06:00 21,3 °C 1,0 °C 50 % 91 % 1014,5 hPa 0,0 l/m² 4,5 km/h (1 Bft) NW 0,00 h 0 W/m² -0,3 °C 0,8 °C 8,9 km/h (2 Bft)
26.11.2025 07:00 21,3 °C 1,0 °C 49 % 90 % 1015,4 hPa 0,0 l/m² 6,0 km/h (2 Bft) NW 0,00 h 0 W/m² -0,5 °C 0,2 °C 11,1 km/h (2 Bft)
26.11.2025 08:00 21,3 °C 1,1 °C 49 % 90 % 1016,2 hPa 0,0 l/m² 5,6 km/h (2 Bft) NW 0,00 h 23 W/m² -0,4 °C 0,6 °C 10,8 km/h (2 Bft)
26.11.2025 09:00 21,4 °C 1,1 °C 49 % 89 % 1016,8 hPa 0,0 l/m² 10,4 km/h (2 Bft) NW 0,00 h 33 W/m² -0,4 °C -2,4 °C 17,0 km/h (3 Bft)
26.11.2025 10:00 21,4 °C 1,2 °C 49 % 89 % 1017,4 hPa 0,0 l/m² 12,5 km/h (2 Bft) NW 0,52 h 55 W/m² -0,4 °C -3,8 °C 19,9 km/h (4 Bft)
26.11.2025 11:00 21,3 °C 1,9 °C 46 % 89 % 1017,7 hPa 0,0 l/m² 10,3 km/h (2 Bft) NW 1,00 h 95 W/m² 0,2 °C -1,5 °C 16,9 km/h (3 Bft)
26.11.2025 12:00 21,3 °C 2,6 °C 46 % 89 % 1017,7 hPa 0,0 l/m² 6,4 km/h (2 Bft) W-NW 1,00 h 116 W/m² 0,9 °C 1,5 °C 13,1 km/h (3 Bft)
26.11.2025 13:00 21,4 °C 3,3 °C 48 % 87 % 1017,8 hPa 0,0 l/m² 8,0 km/h (2 Bft) W-NW 1,00 h 176 W/m² 1,5 °C 1,6 °C 14,7 km/h (3 Bft)
26.11.2025 14:00 21,4 °C 4,0 °C 49 % 85 % 1018,1 hPa 0,0 l/m² 6,7 km/h (2 Bft) W-NW 0,68 h 93 W/m² 1,7 °C 3,0 °C 14,0 km/h (3 Bft)
26.11.2025 15:00 21,4 °C 3,4 °C 49 % 86 % 1018,8 hPa 0,0 l/m² 5,3 km/h (1 Bft) W-NW 0,00 h 21 W/m² 1,4 °C 3,0 °C 11,9 km/h (2 Bft)
26.11.2025 16:00 21,3 °C 3,0 °C 48 % 87 % 1019,2 hPa 0,0 l/m² 3,9 km/h (1 Bft) W-NW 0,00 h 5 W/m² 1,0 °C 2,9 °C 10,5 km/h (2 Bft)
26.11.2025 17:00 21,3 °C 2,7 °C 48 % 88 % 1019,8 hPa 0,0 l/m² 2,7 km/h (1 Bft) W-NW 0,00 h 0 W/m² 0,9 °C 2,7 °C 8,3 km/h (2 Bft)
26.11.2025 18:00 21,2 °C 2,7 °C 49 % 88 % 1020,4 hPa 0,0 l/m² 0,9 km/h (0 Bft) W-NW 0,00 h 0 W/m² 0,9 °C 2,7 °C 3,7 km/h (1 Bft)
26.11.2025 19:00 21,2 °C 2,7 °C 50 % 88 % 1020,9 hPa 0,0 l/m² 1,4 km/h (1 Bft) W 0,00 h 0 W/m² 0,9 °C 2,7 °C 3,2 km/h (1 Bft)
26.11.2025 20:00 21,2 °C 2,7 °C 51 % 88 % 1021,4 hPa 0,0 l/m² 1,4 km/h (1 Bft) W-NW 0,00 h 0 W/m² 1,0 °C 2,7 °C 4,6 km/h (1 Bft)
26.11.2025 21:00 21,3 °C 2,9 °C 51 % 87 % 1022,0 hPa 0,0 l/m² 3,6 km/h (1 Bft) W-NW 0,00 h 0 W/m² 1,0 °C 2,7 °C 9,1 km/h (2 Bft)
26.11.2025 22:00 21,3 °C 2,9 °C 52 % 85 % 1022,1 hPa 0,0 l/m² 4,5 km/h (1 Bft) W-NW 0,00 h 0 W/m² 0,7 °C 2,8 °C 9,8 km/h (2 Bft)
26.11.2025 23:00 21,2 °C 2,6 °C 52 % 86 % 1022,1 hPa 0,0 l/m² 1,4 km/h (1 Bft) SW 0,00 h 0 W/m² 0,4 °C 2,6 °C 2,0 km/h (1 Bft)
27.11.2025 00:00 21,2 °C 2,1 °C 52 % 87 % 1022,3 hPa 0,0 l/m² 1,4 km/h (1 Bft) SW 0,00 h 0 W/m² 0,2 °C 2,1 °C 2,8 km/h (1 Bft)
27.11.2025 01:00 21,3 °C 1,9 °C 52 % 88 % 1022,1 hPa 0,0 l/m² 3,3 km/h (1 Bft) SW 0,00 h 0 W/m² 0,1 °C 1,9 °C 5,0 km/h (1 Bft)
27.11.2025 02:00 21,3 °C 1,9 °C 52 % 86 % 1022,3 hPa 0,0 l/m² 0,4 km/h (0 Bft) S-SW 0,00 h 0 W/m² -0,2 °C 1,9 °C 0,8 km/h (0 Bft)
27.11.2025 03:00 21,2 °C 1,8 °C 52 % 84 % 1022,1 hPa 0,0 l/m² 1,4 km/h (1 Bft) S-SW 0,00 h 0 W/m² -0,7 °C 1,7 °C 3,7 km/h (1 Bft)
27.11.2025 04:00 21,3 °C 1,4 °C 52 % 82 % 1022,4 hPa 0,0 l/m² 0,8 km/h (0 Bft) W-SW 0,00 h 0 W/m² -1,3 °C 1,4 °C 1,9 km/h (1 Bft)
27.11.2025 05:00 21,3 °C 0,4 °C 52 % 84 % 1022,3 hPa 0,0 l/m² 0,8 km/h (0 Bft) SW 0,00 h 0 W/m² -2,0 °C 0,4 °C 2,1 km/h (1 Bft)
27.11.2025 06:00 21,2 °C -0,7 °C 52 % 85 % 1022,5 hPa 0,2 l/m² 0,0 km/h (0 Bft) S 0,00 h 0 W/m² -2,9 °C -0,7 °C 0,0 km/h (0 Bft)
27.11.2025 07:00 21,3 °C -1,7 °C 51 % 87 % 1022,8 hPa 0,0 l/m² 0,0 km/h (0 Bft) SO 0,00 h 6 W/m² -3,6 °C -1,7 °C 0,0 km/h (0 Bft)
27.11.2025 08:00 21,4 °C -2,1 °C 51 % 88 % 1022,9 hPa 0,0 l/m² 0,0 km/h (0 Bft) SO 0,00 h 24 W/m² -3,8 °C -2,1 °C 0,0 km/h (0 Bft)
27.11.2025 09:00 21,4 °C -1,2 °C 51 % 90 % 1022,9 hPa 0,0 l/m² 1,3 km/h (1 Bft) SO 0,68 h 63 W/m² -2,7 °C -1,3 °C 2,3 km/h (1 Bft)
27.11.2025 10:00 21,5 °C 1,6 °C 51 % 90 % 1022,6 hPa 0,0 l/m² 9,1 km/h (2 Bft) S-SO 1,00 h 111 W/m² 0,0 °C -1,0 °C 13,9 km/h (3 Bft)
27.11.2025 11:00 21,6 °C 3,3 °C 51 % 83 % 1022,1 hPa 0,0 l/m² 11,3 km/h (2 Bft) S 1,00 h 139 W/m² 0,7 °C -0,7 °C 16,0 km/h (3 Bft)
27.11.2025 12:00 21,6 °C 4,8 °C 51 % 77 % 1021,5 hPa 0,0 l/m² 14,1 km/h (3 Bft) S-SW 0,98 h 223 W/m² 1,1 °C -0,5 °C 19,8 km/h (4 Bft)
27.11.2025 13:00 21,6 °C 5,3 °C 50 % 74 % 1021,1 hPa 0,0 l/m² 15,1 km/h (3 Bft) S-SW 1,02 h 199 W/m² 1,0 °C -0,5 °C 21,0 km/h (4 Bft)
27.11.2025 14:00 21,6 °C 5,3 °C 51 % 73 % 1020,7 hPa 0,0 l/m² 14,2 km/h (3 Bft) S-SW 1,00 h 117 W/m² 0,9 °C -0,1 °C 19,7 km/h (3 Bft)
27.11.2025 15:00 21,6 °C 4,4 °C 50 % 75 % 1020,6 hPa 0,0 l/m² 9,9 km/h (2 Bft) S 0,20 h 34 W/m² 0,3 °C 1,6 °C 14,5 km/h (3 Bft)
27.11.2025 16:00 21,5 °C 3,0 °C 50 % 79 % 1020,5 hPa 0,0 l/m² 7,5 km/h (2 Bft) S-SO 0,00 h 6 W/m² -0,3 °C 1,9 °C 11,3 km/h (2 Bft)
27.11.2025 17:00 21,4 °C 2,2 °C 50 % 82 % 1020,4 hPa 0,0 l/m² 7,8 km/h (2 Bft) S-SO 0,00 h 0 W/m² -0,6 °C 0,8 °C 12,0 km/h (2 Bft)
27.11.2025 18:00 21,3 °C 2,5 °C 50 % 82 % 1020,2 hPa 0,0 l/m² 11,5 km/h (2 Bft) S 0,00 h 0 W/m² -0,2 °C -1,7 °C 17,8 km/h (3 Bft)
27.11.2025 19:00 21,3 °C 2,9 °C 50 % 82 % 1020,4 hPa 0,0 l/m² 9,2 km/h (2 Bft) S 0,00 h 0 W/m² 0,1 °C 0,5 °C 14,2 km/h (3 Bft)
27.11.2025 20:00 21,3 °C 3,2 °C 50 % 81 % 1020,7 hPa 0,0 l/m² 6,2 km/h (2 Bft) S-SO 0,00 h 0 W/m² 0,3 °C 2,1 °C 10,8 km/h (2 Bft)
27.11.2025 21:00 21,4 °C 3,6 °C 51 % 81 % 1020,6 hPa 0,0 l/m² 8,4 km/h (2 Bft) S 0,00 h 0 W/m² 0,7 °C 1,8 °C 12,9 km/h (3 Bft)
27.11.2025 22:00 21,4 °C 3,8 °C 50 % 83 % 1020,5 hPa 0,0 l/m² 12,9 km/h (3 Bft) S-SW 0,00 h 0 W/m² 1,2 °C -0,9 °C 16,9 km/h (3 Bft)
27.11.2025 23:00 21,3 °C 3,9 °C 50 % 86 % 1020,4 hPa 0,0 l/m² 13,5 km/h (3 Bft) S-SW 0,00 h 0 W/m² 1,9 °C -1,2 °C 18,5 km/h (3 Bft)
28.11.2025 00:00 21,3 °C 3,7 °C 50 % 90 % 1020,1 hPa 0,0 l/m² 9,5 km/h (2 Bft) S-SW 0,00 h 0 W/m² 2,2 °C 1,1 °C 14,4 km/h (3 Bft)
28.11.2025 01:00 21,3 °C 4,0 °C 50 % 89 % 1019,9 hPa 0,0 l/m² 10,1 km/h (2 Bft) S-SW 0,00 h 0 W/m² 2,4 °C 0,9 °C 14,3 km/h (3 Bft)
28.11.2025 02:00 21,2 °C 4,2 °C 50 % 88 % 1019,8 hPa 0,0 l/m² 12,7 km/h (3 Bft) S-SW 0,00 h 0 W/m² 2,4 °C -0,5 °C 16,4 km/h (3 Bft)
28.11.2025 03:00 21,2 °C 4,3 °C 50 % 88 % 1019,5 hPa 0,0 l/m² 6,3 km/h (2 Bft) S-SW 0,00 h 0 W/m² 2,5 °C 3,5 °C 9,4 km/h (2 Bft)
28.11.2025 04:00 21,3 °C 4,3 °C 50 % 88 % 1019,2 hPa 0,0 l/m² 7,0 km/h (2 Bft) S 0,00 h 0 W/m² 2,4 °C 3,3 °C 10,1 km/h (2 Bft)
28.11.2025 05:00 21,3 °C 4,4 °C 50 % 87 % 1018,9 hPa 0,0 l/m² 10,5 km/h (2 Bft) S-SW 0,00 h 0 W/m² 2,4 °C 1,1 °C 14,1 km/h (3 Bft)
28.11.2025 06:00 21,2 °C 4,4 °C 50 % 87 % 1019,0 hPa 0,0 l/m² 10,7 km/h (2 Bft) S-SW 0,00 h 0 W/m² 2,4 °C 1,0 °C 14,1 km/h (3 Bft)
28.11.2025 07:00 21,2 °C 4,3 °C 50 % 87 % 1019,0 hPa 0,0 l/m² 10,7 km/h (2 Bft) S-SW 0,00 h 5 W/m² 2,4 °C 1,0 °C 14,3 km/h (3 Bft)
28.11.2025 08:00 21,2 °C 4,4 °C 50 % 87 % 1018,9 hPa 0,0 l/m² 8,9 km/h (2 Bft) SW 0,00 h 16 W/m² 2,5 °C 2,3 °C 12,5 km/h (2 Bft)
28.11.2025 09:00 21,2 °C 4,8 °C 50 % 87 % 1018,6 hPa 0,0 l/m² 12,2 km/h (2 Bft) S-SW 0,40 h 47 W/m² 2,8 °C 0,5 °C 16,2 km/h (3 Bft)
28.11.2025 10:00 21,3 °C 5,8 °C 50 % 85 % 1018,3 hPa 0,0 l/m² 15,8 km/h (3 Bft) S-SW 1,00 h 243 W/m² 3,5 °C -0,2 °C 21,3 km/h (4 Bft)
28.11.2025 11:00 21,5 °C 6,6 °C 50 % 83 % 1017,7 hPa 0,0 l/m² 17,0 km/h (3 Bft) S-SW 1,00 h 168 W/m² 3,9 °C 0,2 °C 23,8 km/h (4 Bft)
28.11.2025 12:00 21,4 °C 6,4 °C 50 % 84 % 1016,9 hPa 0,0 l/m² 14,1 km/h (3 Bft) S-SW 1,00 h 117 W/m² 3,9 °C 1,3 °C 18,8 km/h (3 Bft)
28.11.2025 13:00 21,3 °C 6,9 °C 50 % 84 % 1016,3 hPa 0,0 l/m² 14,7 km/h (3 Bft) S-SW 0,87 h 85 W/m² 4,4 °C 1,7 °C 18,9 km/h (3 Bft)
28.11.2025 14:00 21,2 °C 6,8 °C 49 % 84 % 1015,9 hPa 0,0 l/m² 11,0 km/h (2 Bft) S-SW 0,80 h 58 W/m² 4,4 °C 3,6 °C 14,3 km/h (3 Bft)
28.11.2025 15:00 21,2 °C 6,8 °C 48 % 85 % 1015,7 hPa 0,0 l/m² 12,7 km/h (3 Bft) S-SW 0,00 h 17 W/m² 4,5 °C 2,7 °C 16,4 km/h (3 Bft)
28.11.2025 16:00 21,2 °C 6,7 °C 49 % 86 % 1015,6 hPa 0,0 l/m² 4,5 km/h (1 Bft) N 0,00 h 0 W/m² 4,5 °C 6,0 °C 6,3 km/h (2 Bft)
28.11.2025 17:00 21,2 °C 6,3 °C 49 % 87 % 1015,3 hPa 0,0 l/m² 4,6 km/h (1 Bft) S 0,00 h 0 W/m² 4,2 °C 5,8 °C 6,8 km/h (2 Bft)
28.11.2025 18:00 21,2 °C 6,1 °C 51 % 86 % 1015,2 hPa 0,0 l/m² 9,7 km/h (2 Bft) S 0,00 h 0 W/m² 4,0 °C 3,6 °C 14,3 km/h (3 Bft)
28.11.2025 19:00 21,3 °C 5,9 °C 52 % 85 % 1015,0 hPa 0,0 l/m² 10,9 km/h (2 Bft) S 0,00 h 0 W/m² 3,6 °C 2,6 °C 16,0 km/h (3 Bft)
28.11.2025 20:00 21,7 °C 5,8 °C 52 % 86 % 1015,0 hPa 0,0 l/m² 8,1 km/h (2 Bft) S 0,00 h 0 W/m² 3,7 °C 4,2 °C 12,2 km/h (2 Bft)
28.11.2025 21:00 22,0 °C 5,7 °C 52 % 88 % 1014,7 hPa 0,0 l/m² 7,1 km/h (2 Bft) S 0,00 h 0 W/m² 3,9 °C 4,9 °C 10,7 km/h (2 Bft)
28.11.2025 22:00 21,8 °C 5,8 °C 51 % 88 % 1014,1 hPa 0,2 l/m² 5,4 km/h (2 Bft) S 0,00 h 0 W/m² 4,0 °C 4,8 °C 8,6 km/h (2 Bft)
28.11.2025 23:00 21,6 °C 5,9 °C 51 % 88 % 1013,9 hPa 0,0 l/m² 1,4 km/h (1 Bft) S 0,00 h 0 W/m² 4,1 °C 5,9 °C 3,6 km/h (1 Bft)
29.11.2025 00:00 21,6 °C 6,0 °C 51 % 89 % 1013,7 hPa 0,2 l/m² 3,3 km/h (1 Bft) S 0,00 h 0 W/m² 4,3 °C 5,7 °C 5,4 km/h (1 Bft)
29.11.2025 01:00 21,5 °C 6,1 °C 51 % 90 % 1013,5 hPa 0,6 l/m² 4,3 km/h (1 Bft) SW 0,00 h 0 W/m² 4,7 °C 5,9 °C 6,9 km/h (2 Bft)
29.11.2025 02:00 21,4 °C 6,0 °C 51 % 91 % 1013,6 hPa 0,4 l/m² 0,2 km/h (0 Bft) SW 0,00 h 0 W/m² 4,7 °C 6,0 °C 0,6 km/h (0 Bft)
29.11.2025 03:00 21,4 °C 6,0 °C 51 % 92 % 1013,5 hPa 0,2 l/m² 1,2 km/h (1 Bft) SW 0,00 h 0 W/m² 4,8 °C 6,0 °C 2,4 km/h (1 Bft)
29.11.2025 04:00 21,4 °C 5,8 °C 51 % 92 % 1013,5 hPa 0,0 l/m² 0,0 km/h (0 Bft) SW 0,00 h 0 W/m² 4,6 °C 5,8 °C 0,0 km/h (0 Bft)
29.11.2025 05:00 21,4 °C 5,2 °C 51 % 92 % 1013,6 hPa 0,0 l/m² 0,1 km/h (0 Bft) SW 0,00 h 0 W/m² 4,0 °C 5,2 °C 0,2 km/h (0 Bft)
29.11.2025 06:00 21,4 °C 3,9 °C 51 % 91 % 1013,8 hPa 0,0 l/m² 0,0 km/h (0 Bft) S-SO 0,00 h 0 W/m² 2,7 °C 3,9 °C 0,0 km/h (0 Bft)
29.11.2025 07:00 21,4 °C 2,2 °C 51 % 91 % 1014,3 hPa 0,0 l/m² 0,0 km/h (0 Bft) S-SO 0,00 h 0 W/m² 0,9 °C 2,2 °C 0,0 km/h (0 Bft)
29.11.2025 08:00 21,5 °C 1,1 °C 51 % 91 % 1014,4 hPa 0,0 l/m² 0,0 km/h (0 Bft) O 0,00 h 16 W/m² -0,2 °C 1,1 °C 0,0 km/h (0 Bft)
29.11.2025 09:00 21,7 °C 1,5 °C 52 % 92 % 1014,5 hPa 0,0 l/m² 0,0 km/h (0 Bft) O 0,85 h 120 W/m² 0,4 °C 1,5 °C 0,0 km/h (0 Bft)
29.11.2025 10:00 22,0 °C 5,1 °C 51 % 94 % 1014,3 hPa 0,0 l/m² 0,0 km/h (0 Bft) O 1,00 h 259 W/m² 4,1 °C 5,1 °C 0,0 km/h (0 Bft)
29.11.2025 11:00 22,0 °C 8,1 °C 50 % 93 % 1013,8 hPa 0,0 l/m² 0,8 km/h (0 Bft) S-SW 1,00 h 256 W/m² 7,0 °C 8,0 °C 1,5 km/h (1 Bft)
29.11.2025 12:00 21,9 °C 8,7 °C 53 % 86 % 1013,3 hPa 0,0 l/m² 9,9 km/h (2 Bft) S-SW 0,98 h 161 W/m² 6,5 °C 6,1 °C 13,4 km/h (3 Bft)
29.11.2025 13:00 21,9 °C 8,3 °C 54 % 86 % 1012,9 hPa 0,0 l/m² 7,9 km/h (2 Bft) S 0,95 h 89 W/m² 6,2 °C 6,9 °C 11,3 km/h (2 Bft)
29.11.2025 14:00 21,8 °C 8,1 °C 54 % 87 % 1012,4 hPa 0,0 l/m² 2,5 km/h (1 Bft) S-SO 0,00 h 29 W/m² 6,1 °C 8,0 °C 4,9 km/h (1 Bft)
29.11.2025 15:00 21,8 °C 7,8 °C 54 % 89 % 1012,1 hPa 0,0 l/m² 0,6 km/h (0 Bft) SO 0,00 h 13 W/m² 6,1 °C 7,8 °C 1,6 km/h (1 Bft)
29.11.2025 16:00 22,0 °C 7,3 °C 56 % 88 % 1011,8 hPa 0,0 l/m² 4,2 km/h (1 Bft) O-SO 0,00 h 0 W/m² 5,5 °C 6,8 °C 6,7 km/h (2 Bft)
29.11.2025 17:00 22,2 °C 6,7 °C 57 % 90 % 1011,6 hPa 0,0 l/m² 6,1 km/h (2 Bft) O 0,00 h 0 W/m² 5,2 °C 5,8 °C 8,9 km/h (2 Bft)
29.11.2025 18:00 22,4 °C 6,8 °C 57 % 91 % 1011,6 hPa 0,0 l/m² 6,5 km/h (2 Bft) O 0,00 h 0 W/m² 5,5 °C 6,2 °C 9,6 km/h (2 Bft)
29.11.2025 19:00 22,1 °C 6,9 °C 57 % 91 % 1011,4 hPa 0,0 l/m² 3,5 km/h (1 Bft) O-SO 0,00 h 0 W/m² 5,5 °C 6,9 °C 6,4 km/h (2 Bft)
29.11.2025 20:00 22,2 °C 6,7 °C 56 % 90 % 1011,1 hPa 0,0 l/m² 0,3 km/h (0 Bft) O-SO 0,00 h 0 W/m² 5,2 °C 6,7 °C 1,0 km/h (0 Bft)
29.11.2025 21:00 22,4 °C 6,4 °C 56 % 90 % 1011,0 hPa 0,0 l/m² 1,1 km/h (0 Bft) SO 0,00 h 0 W/m² 4,8 °C 6,4 °C 3,0 km/h (1 Bft)
29.11.2025 22:00 22,2 °C 5,7 °C 56 % 90 % 1010,7 hPa 0,0 l/m² 0,0 km/h (0 Bft) S-SO 0,00 h 0 W/m² 4,1 °C 5,7 °C 0,0 km/h (0 Bft)
29.11.2025 23:00 22,0 °C 5,0 °C 56 % 90 % 1010,7 hPa 0,0 l/m² 1,4 km/h (1 Bft) O-NO 0,00 h 0 W/m² 3,5 °C 5,0 °C 3,0 km/h (1 Bft)
30.11.2025 00:00 21,9 °C 5,6 °C 56 % 92 % 1010,5 hPa 0,0 l/m² 6,6 km/h (2 Bft) S-SO 0,00 h 0 W/m² 4,3 °C 3,5 °C 10,3 km/h (2 Bft)
30.11.2025 01:00 21,9 °C 6,2 °C 55 % 91 % 1010,2 hPa 0,0 l/m² 12,5 km/h (2 Bft) SO 0,00 h 0 W/m² 4,9 °C 2,0 °C 18,2 km/h (3 Bft)
30.11.2025 02:00 21,8 °C 6,2 °C 55 % 90 % 1010,1 hPa 0,0 l/m² 9,0 km/h (2 Bft) SO 0,00 h 0 W/m² 4,6 °C 3,8 °C 13,7 km/h (3 Bft)
30.11.2025 03:00 21,8 °C 5,7 °C 55 % 89 % 1009,8 hPa 0,0 l/m² 6,3 km/h (2 Bft) SO 0,00 h 0 W/m² 4,1 °C 5,0 °C 10,1 km/h (2 Bft)
30.11.2025 04:00 21,8 °C 5,4 °C 55 % 90 % 1009,5 hPa 0,0 l/m² 6,7 km/h (2 Bft) SO 0,00 h 0 W/m² 3,9 °C 4,4 °C 10,9 km/h (2 Bft)
30.11.2025 05:00 21,8 °C 5,1 °C 55 % 90 % 1009,7 hPa 0,0 l/m² 5,8 km/h (2 Bft) SO 0,00 h 0 W/m² 3,6 °C 4,7 °C 9,6 km/h (2 Bft)
30.11.2025 06:00 21,7 °C 5,2 °C 55 % 90 % 1009,9 hPa 0,0 l/m² 4,9 km/h (1 Bft) SO 0,00 h 0 W/m² 3,7 °C 4,6 °C 8,7 km/h (2 Bft)
30.11.2025 07:00 21,7 °C 4,5 °C 55 % 90 % 1010,1 hPa 0,0 l/m² 2,1 km/h (1 Bft) O-SO 0,00 h 5 W/m² 2,9 °C 4,4 °C 4,3 km/h (1 Bft)
30.11.2025 08:00 21,8 °C 3,8 °C 55 % 90 % 1010,4 hPa 0,0 l/m² 0,1 km/h (0 Bft) O 0,07 h 27 W/m² 2,4 °C 3,8 °C 0,6 km/h (0 Bft)
30.11.2025 09:00 22,0 °C 4,5 °C 55 % 92 % 1010,8 hPa 0,0 l/m² 0,1 km/h (0 Bft) O 1,00 h 104 W/m² 3,3 °C 4,5 °C 0,2 km/h (0 Bft)
30.11.2025 10:00 22,0 °C 6,7 °C 52 % 91 % 1011,0 hPa 0,0 l/m² 3,1 km/h (1 Bft) S 1,00 h 174 W/m² 5,4 °C 6,6 °C 5,5 km/h (2 Bft)
30.11.2025 11:00 22,1 °C 8,7 °C 53 % 87 % 1010,9 hPa 0,0 l/m² 3,8 km/h (1 Bft) S-SO 1,00 h 201 W/m² 6,7 °C 8,4 °C 6,8 km/h (2 Bft)
30.11.2025 12:00 22,0 °C 9,1 °C 54 % 85 % 1010,9 hPa 0,0 l/m² 2,7 km/h (1 Bft) S 1,00 h 105 W/m² 6,7 °C 9,1 °C 5,5 km/h (2 Bft)
30.11.2025 13:00 21,9 °C 9,2 °C 53 % 86 % 1011,1 hPa 0,2 l/m² 0,5 km/h (0 Bft) S-SO 0,32 h 49 W/m² 7,0 °C 9,2 °C 1,0 km/h (0 Bft)
30.11.2025 14:00 21,7 °C 8,8 °C 53 % 88 % 1011,0 hPa 0,2 l/m² 3,2 km/h (1 Bft) W-SW 0,00 h 29 W/m² 6,9 °C 8,7 °C 5,8 km/h (2 Bft)
30.11.2025 15:00 21,6 °C 8,0 °C 54 % 89 % 1011,6 hPa 0,6 l/m² 5,1 km/h (1 Bft) SW 0,00 h 8 W/m² 6,3 °C 7,7 °C 8,0 km/h (2 Bft)
30.11.2025 16:00 21,6 °C 7,4 °C 54 % 91 % 1011,9 hPa 0,2 l/m² 6,2 km/h (2 Bft) SW 0,00 h 0 W/m² 6,0 °C 6,5 °C 8,7 km/h (2 Bft)
30.11.2025 17:00 21,6 °C 6,9 °C 54 % 91 % 1012,1 hPa 0,0 l/m² 0,1 km/h (0 Bft) S-SW 0,00 h 0 W/m² 5,6 °C 6,9 °C 0,2 km/h (0 Bft)
30.11.2025 18:00 21,6 °C 6,7 °C 54 % 91 % 1012,9 hPa 0,2 l/m² 0,0 km/h (0 Bft) W-SW 0,00 h 0 W/m² 5,4 °C 6,7 °C 0,1 km/h (0 Bft)
30.11.2025 19:00 21,5 °C 6,5 °C 54 % 92 % 1013,6 hPa 0,0 l/m² 0,0 km/h (0 Bft) W-SW 0,00 h 0 W/m² 5,3 °C 6,5 °C 0,0 km/h (0 Bft)
30.11.2025 20:00 21,6 °C 6,2 °C 55 % 92 % 1014,0 hPa 0,0 l/m² 0,1 km/h (0 Bft) S-SW 0,00 h 0 W/m² 5,0 °C 6,2 °C 0,3 km/h (0 Bft)
30.11.2025 21:00 22,2 °C 6,2 °C 56 % 92 % 1014,4 hPa 0,0 l/m² 0,0 km/h (0 Bft) S-SW 0,00 h 0 W/m² 5,0 °C 6,2 °C 0,0 km/h (0 Bft)
30.11.2025 22:00 22,2 °C 6,0 °C 55 % 92 % 1015,1 hPa 0,0 l/m² 0,0 km/h (0 Bft) W 0,00 h 0 W/m² 4,9 °C 6,0 °C 0,0 km/h (0 Bft)
30.11.2025 23:00 21,9 °C 5,9 °C 55 % 93 % 1015,8 hPa 0,0 l/m² 0,0 km/h (0 Bft) W 0,00 h 0 W/m² 4,8 °C 5,9 °C 0,0 km/h (0 Bft)
Min-Datum _ 28.11.25 24.11.25 24.11.25 27.11.25 24.11.25 - 30.11.25 - - - 24.11.25 24.11.25 30.11.25
_ Min-Zeit 14:52 08:11 11:37 15:04 15:03 - 23:00 - - - 07:01 02:16 23:00
Minimum _ 20,9 °C -2,9 °C 42 % 73 % 997,9 hPa - 0,0 km/h (0 Bft) - - - -4,4 °C -8,3 °C 0,0 km/h (0 Bft)
Max-Datum _ 29.11.25 30.11.25 29.11.25 29.11.25 27.11.25 30.11.25 28.11.25 - 27.11.25 27.11.25 29.11.25 30.11.25 27.11.25
_ Max-Zeit 18:21 14:01 18:00 11:00 09:05 15:31 12:08 - 12:08 12:30 11:50 14:01 13:00
Maximum _ 22,5 °C 9,2 °C 58 % 94 % 1023,1 hPa 0,6 l/m² 22,5 km/h
S-SW (4 Bft)
- 0,13 h 403 W/m² 7,9 °C 9,2 °C 32,2 km/h
S (5 Bft)
Durchschnitt _ 21,6 °C 3,5 °C 51 % 89 % 1012,0 hPa #3,8 l/m² 4,2 km/h (1 Bft) S-SW #35:33 h 32 W/m² 1,8 °C 2,5 °C 6,7 km/h (2 Bft)
© 2009 Mathias Hoßbach